Waarnemingen

Advertentie
Mijn weer
Decimomannu, Italië (16546): temperatuur & dauwpunt: 18.02.2018 13:00:00 - 24.02.2018 13:00:00 (CET)Decimomannu, Italië (16546): windsnelheid: 18.02.2018 13:00:00 - 24.02.2018 13:00:00 (CET)Decimomannu, Italië (16546): windrichting: 18.02.2018 13:00:00 - 24.02.2018 13:00:00 (CET)Decimomannu, Italië (16546): luchtdruk: 18.02.2018 13:00:00 - 24.02.2018 13:00:00 (CET)Decimomannu, Italië (16546): zicht: 18.02.2018 13:00:00 - 24.02.2018 13:00:00 (CET)
Datum & Tijd tt [°C] td [°C] ff [km/u] ff [kn] dd ppp [hPa] vv [km]
24.02.2018 13:00:00 11,8 9,7 18 10 W 1006,1 12
24.02.2018 12:00:00 10,0 8,0 18 10 WNW - 10
24.02.2018 11:00:00 11,0 7,0 15 8 W - 10
24.02.2018 10:00:00 10,8 8,9 4 2 ZZO 1005,9 12
24.02.2018 09:00:00 6,0 5,0 9 5 N - 10
24.02.2018 08:00:00 5,0 3,0 9 5 NO - 10
24.02.2018 07:00:00 5,4 3,6 4 2 N 1004,4 10
24.02.2018 06:00:00 7,0 5,0 9 5 WNW - 10
24.02.2018 05:00:00 3,0 1,0 8 4 N - 10
24.02.2018 04:00:00 3,0 1,7 2 1 N 1003,9 12
24.02.2018 03:00:00 5,0 3,0 4 2 ONO - 10
24.02.2018 02:00:00 5,0 3,0 4 2 NO - 10
24.02.2018 01:00:00 4,6 3,1 5 3 Z 1003,9 10
24.02.2018 00:00:00 6,0 5,0 11 6 WNW - 10
23.02.2018 23:00:00 6,0 4,0 13 7 WNW - 10
23.02.2018 22:00:00 7,0 5,5 15 8 W 1003,0 12
23.02.2018 21:00:00 7,0 5,0 9 5 WNW - 10
23.02.2018 20:00:00 8,0 7,0 21 11 NW - 10
23.02.2018 19:00:00 8,0 6,9 18 10 W 1001,9 20
23.02.2018 18:00:00 9,0 8,0 22 12 WNW - 10
23.02.2018 17:00:00 10,0 8,0 29 16 WNW - 10
23.02.2018 16:00:00 12,0 7,7 34 18 WNW 1000,7 20
23.02.2018 15:00:00 11,0 8,0 22 12 WNW - 10
23.02.2018 14:00:00 11,0 8,0 22 12 WNW - 10
23.02.2018 13:00:00 12,0 8,7 11 6 WNW 1000,7 20
23.02.2018 12:00:00 12,0 9,0 8 4 WNW - 10
23.02.2018 11:00:00 9,0 7,0 4 2 NW - 10
23.02.2018 10:00:00 4,0 2,5 4 2 NW 1001,9 16
23.02.2018 09:00:00 2,0 1,0 8 4 W - 10
23.02.2018 08:00:00 1,0 0,0 8 4 NO - 10
23.02.2018 07:00:00 0,4 -0,8 5 3 NNW 1001,0 12
23.02.2018 06:00:00 0,0 -1,0 4 2 NNW - 10
23.02.2018 05:00:00 1,0 0,0 8 4 NW - 10
23.02.2018 04:00:00 1,2 -0,1 8 4 NW 1000,7 12
23.02.2018 03:00:00 2,0 1,0 9 5 NNO - 10
23.02.2018 02:00:00 3,0 2,0 5 3 N - 10
23.02.2018 01:00:00 4,0 2,8 5 3 NNW 1001,9 12
23.02.2018 00:00:00 3,0 2,0 2 1 NNO - 10
22.02.2018 23:00:00 4,0 3,0 5 3 N - 10
22.02.2018 22:00:00 3,8 2,6 4 2 N 1001,2 12
22.02.2018 21:00:00 5,0 4,0 5 3 N - 10
22.02.2018 20:00:00 6,0 5,0 5 3 NW - 10
22.02.2018 19:00:00 8,0 6,8 13 7 NW 1000,7 16
22.02.2018 18:00:00 8,0 7,0 15 8 WNW - 10
22.02.2018 17:00:00 9,0 7,0 24 13 NW - 10
22.02.2018 16:00:00 10,0 7,4 22 12 NW 1000,0 20
22.02.2018 15:00:00 9,0 7,0 22 12 NW - 10
22.02.2018 14:00:00 12,0 9,0 21 11 NW - 10
22.02.2018 13:00:00 9,8 7,1 13 7 NW 999,9 20
22.02.2018 12:00:00 9,0 7,0 15 8 NNW - 10
22.02.2018 11:00:00 9,0 7,0 15 8 NNW - 10
22.02.2018 10:00:00 8,2 6,3 15 8 NNW 1000,0 20
22.02.2018 09:00:00 6,0 5,0 8 4 WNW - 10
22.02.2018 08:00:00 5,0 4,0 5 3 NNO - 10
22.02.2018 07:00:00 6,0 4,7 11 6 NO 999,7 9
22.02.2018 06:00:00 6,0 5,0 11 6 ONO - 8
22.02.2018 05:00:00 7,0 6,0 9 5 O - 8
22.02.2018 04:00:00 7,0 5,8 2 1 ONO 1000,0 8
22.02.2018 03:00:00 7,0 6,0 13 7 W - 10
22.02.2018 02:00:00 7,0 6,0 9 5 WZW - 10
22.02.2018 01:00:00 7,2 6,1 5 3 NNW 1000,7 12
22.02.2018 00:00:00 7,0 7,0 5 3 NW - 10
21.02.2018 23:00:00 8,0 7,0 2 1 ZZW - 10
21.02.2018 22:00:00 8,0 7,1 5 3 NO 1001,3 12
21.02.2018 21:00:00 8,0 7,0 4 2 NNO - 10
21.02.2018 20:00:00 8,0 8,0 8 4 NNO - 10
21.02.2018 19:00:00 8,2 6,8 5 3 ZZW 1001,0 12
21.02.2018 18:00:00 9,0 7,0 9 5 Z - 10
21.02.2018 17:00:00 10,0 8,0 13 7 ZZO - 10
21.02.2018 16:00:00 12,0 5,9 9 5 W 1001,5 15
21.02.2018 15:00:00 12,0 5,0 8 4 W - 10
21.02.2018 14:00:00 12,0 4,0 4 2 WNW - 10
21.02.2018 13:00:00 11,8 6,7 13 7 NNW 1002,8 15
21.02.2018 12:00:00 11,0 8,0 9 5 NW - 10
21.02.2018 11:00:00 11,0 9,0 9 5 ZW - 10
21.02.2018 10:00:00 8,0 6,5 8 4 NNW 1003,3 20
21.02.2018 09:00:00 4,0 3,0 5 3 NNW - 8
21.02.2018 08:00:00 1,0 0,0 4 2 NNW - 8
21.02.2018 07:00:00 0,8 -0,4 4 2 NNW 1003,1 6
21.02.2018 06:00:00 1,0 0,0 9 5 N - 6
21.02.2018 05:00:00 1,0 0,0 4 2 W - 4,0
21.02.2018 04:00:00 2,2 1,0 8 4 NW 1003,0 4,0
21.02.2018 03:00:00 3,0 2,0 11 6 N - 4,0
21.02.2018 02:00:00 3,0 2,0 9 5 N - 4,0
21.02.2018 01:00:00 4,0 2,8 13 7 N 1003,7 4,0
21.02.2018 00:00:00 4,0 3,0 13 7 N - 4,0
20.02.2018 23:00:00 5,0 4,0 8 4 WNW - 1,0
20.02.2018 22:00:00 5,0 3,5 8 4 WNW 1002,9 0,8
20.02.2018 21:00:00 7,0 5,0 5 3 NNW - 5
20.02.2018 20:00:00 7,0 6,0 5 3 NO - 10
20.02.2018 19:00:00 8,0 6,3 2 1 Z 1002,9 10
20.02.2018 18:00:00 8,0 7,0 4 2 OZO - 10
20.02.2018 17:00:00 9,0 7,0 4 2 O - 10
20.02.2018 16:00:00 9,2 7,3 5 3 WNW 1004,0 9
20.02.2018 15:00:00 9,0 7,0 2 1 Z - 10
20.02.2018 14:00:00 10,0 8,0 5 3 ZW - 9
20.02.2018 13:00:00 9,4 7,5 8 4 Z 1006,9 10
20.02.2018 12:00:00 9,0 8,0 21 11 ZW - 10
20.02.2018 11:00:00 8,0 7,0 5 3 ZZW - 10
20.02.2018 10:00:00 8,0 6,3 4 2 ZW 1009,0 12
20.02.2018 09:00:00 6,0 5,0 4 2 N - 10
20.02.2018 08:00:00 5,0 3,0 5 3 NO - 10
20.02.2018 07:00:00 4,0 2,5 8 4 ZW 1010,1 10
20.02.2018 06:00:00 5,0 4,0 5 3 ZZO - 10
20.02.2018 05:00:00 5,0 4,0 8 4 O - 10
20.02.2018 04:00:00 3,0 1,5 11 6 N 1010,7 12
20.02.2018 03:00:00 3,0 2,0 11 6 N - 10
20.02.2018 02:00:00 3,0 2,0 5 3 NNW - 10
20.02.2018 01:00:00 4,2 3,0 2 1 NO 1012,0 20
20.02.2018 00:00:00 5,0 3,0 4 2 NO - 10
19.02.2018 23:00:00 5,0 4,0 5 3 NW - 10
19.02.2018 22:00:00 5,0 3,8 8 4 WNW 1012,8 20
19.02.2018 21:00:00 7,0 6,0 5 3 WNW - 10
19.02.2018 20:00:00 7,0 6,0 4 2 NW - 10
19.02.2018 19:00:00 9,8 7,9 4 2 NNW 1012,5 25
19.02.2018 18:00:00 11,0 9,0 13 7 WNW - 10
19.02.2018 17:00:00 12,0 8,0 16 9 WNW - 10
19.02.2018 16:00:00 13,2 10,7 22 12 NW 1012,5 20
19.02.2018 15:00:00 12,0 10,0 24 13 NW - 10
19.02.2018 14:00:00 14,0 12,0 24 13 WNW - 7
19.02.2018 13:00:00 12,0 10,1 18 10 WNW 1013,7 12
19.02.2018 12:00:00 14,0 12,0 9 5 WZW - 10
19.02.2018 11:00:00 13,0 11,0 13 7 W - 10
19.02.2018 10:00:00 12,4 10,5 5 3 WNW 1014,1 12
19.02.2018 09:00:00 9,0 8,0 2 1 NO - 10
19.02.2018 08:00:00 8,0 6,0 4 2 NNO - 10
19.02.2018 07:00:00 7,8 6,1 2 1 NW 1014,0 12
19.02.2018 06:00:00 8,0 6,0 4 2 W - 10
19.02.2018 05:00:00 8,0 7,0 5 3 NNO - 10
19.02.2018 04:00:00 8,4 6,5 4 2 N 1014,1 12
19.02.2018 03:00:00 9,0 7,0 2 1 NNO - 10
19.02.2018 02:00:00 8,0 7,0 2 1 N - 10
19.02.2018 01:00:00 7,4 5,9 2 1 NW 1014,9 12
19.02.2018 00:00:00 8,0 7,0 8 4 N - 10
18.02.2018 23:00:00 8,0 7,0 8 4 N - 10
18.02.2018 22:00:00 9,2 8,0 8 4 NNW 1015,5 12
18.02.2018 21:00:00 11,0 9,0 11 6 NW - 10
18.02.2018 20:00:00 11,0 9,0 9 5 NNW - 10
18.02.2018 19:00:00 11,0 9,1 15 8 NNW 1015,7 12
18.02.2018 18:00:00 12,0 9,0 22 12 NW - 10
18.02.2018 17:00:00 13,0 9,0 34 18 NW - 10
18.02.2018 16:00:00 13,8 8,6 35 19 NW 1015,5 20
18.02.2018 15:00:00 15,0 10,0 29 16 NW - 10
18.02.2018 14:00:00 15,0 11,0 34 18 NW - 10
18.02.2018 13:00:00 15,0 11,4 34 18 NW 1016,4 12

tt = temperatuur
td = dauwpunt
ff = windsnelheid
dd = windrichting
ppp = luchtdruk
vv = zicht

Weerstations in de omgeving